Home   Weather   42°04'N, 75°54'W   Past weeks
Flag for USA

Past Weather in 42°04'N, 75°54'W, USA — Yesterday and Last 2 Weeks

Now
52 °F

Overcast.


Feels Like: 52 °F
Forecast: 57 / 45 °F
Wind: 3 mph from South

Location: Binghamton Regional Airport

Current Time: Oct 22, 2019 at 11:10:38 pm

Latest Report: Oct 22, 2019 at 9:53 pm


Visibility: 10 mi

Pressure: 29.83 "Hg

Humidity: 97%

Dew Point: 51 °F

Location of 42°04'N, 75°54'WLocation

Past Weather in 42°04'N, 75°54'W — Graph

°F

42°04'N, 75°54'W Temperature Yesterday

Maximum temperature yesterday: 61 °F (at 4:53 pm)
Minimum temperature yesterday: 39 °F (at 2:53 am)
Average temperature yesterday: 46 °F

High & Low Weather Summary for the Past Weeks

 TemperatureHumidityPressure
High66 °F (Oct 11, 2:53 pm)100% (Oct 8, 4:03 am)30.37 "Hg (Oct 8, 4:03 am)
Low30 °F (Oct 19, 7:20 am)33% (Oct 13, 3:53 pm)29.28 "Hg (Oct 17, 8:02 am)
Average48 °F79%29.99 "Hg
* Reported Oct 7 9:53 pm — Oct 22 9:53 pm, 42°04'N, 75°54'W. Weather by CustomWeather, © 2019

Note: Actual official high and low records may vary slightly from our data, if they occured in-between our weather recording intervals... More about our weather records

Advertising

42°04'N, 75°54'W Weather History for the Previous 24 Hours

Scroll right to see more
 ConditionsComfort  
Time TempWeatherWind HumidityBarometerVisibility
9:53 pm
Tue, Oct 22
52 °FOvercast.3 mph97%29.83 "Hg10 mi
9:19 pm52 °FLight rain. Mostly cloudy.3 mph97%29.82 "Hg7 mi
9:03 pm52 °FLight rain. Fog.5 mph97%29.82 "Hg6 mi
7:53 pm53 °FLight rain. Fog.3 mph96%29.83 "Hg6 mi
7:41 pm52 °FRain. Fog.5 mph100%29.82 "Hg2 mi
7:00 pm52 °FRain. Fog.5 mph100%29.83 "Hg2 mi
6:16 pm53 °FRain. Fog.3 mph96%29.82 "Hg2 mi
6:07 pm53 °FLight rain. Fog.3 mph96%29.83 "Hg2 mi
5:53 pm53 °FRain. Fog.No wind96%29.83 "Hg2 mi
5:37 pm53 °FHeavy rain. Fog.3 mph96%29.83 "Hg1 mi
5:03 pm53 °FRain. Fog.8 mph93%29.83 "Hg2 mi
4:53 pm53 °FRain. Fog.10 mph93%29.83 "Hg2 mi
4:30 pm52 °FHeavy rain. Fog.10 mph97%29.83 "Hg2 mi
3:53 pm53 °FLight rain. Overcast.14 mph89%29.80 "Hg10 mi
2:53 pm54 °FOvercast.17 mph83%29.80 "Hg10 mi
1:53 pm56 °FPartly sunny.13 mph81%29.81 "Hg10 mi
12:53 pm53 °FOvercast.15 mph86%29.87 "Hg10 mi
12:31 pm53 °FLow clouds.17 mph86%29.89 "Hg10 mi
11:53 am52 °FOvercast.18 mph83%29.90 "Hg10 mi
10:53 am52 °FOvercast.17 mph80%29.93 "Hg10 mi
10:33 am51 °FOvercast.14 mph83%29.94 "Hg10 mi
10:21 am51 °FOvercast.21 mph80%29.93 "Hg10 mi
9:53 am51 °FOvercast.18 mph80%29.94 "Hg10 mi
8:53 am51 °FOvercast.14 mph86%29.97 "Hg10 mi
7:53 am51 °FOvercast.12 mph83%29.96 "Hg10 mi
7:02 am52 °FOvercast.12 mph80%29.95 "Hg10 mi
5:53 am52 °FOvercast.15 mph80%29.97 "Hg10 mi
4:53 am52 °FOvercast.16 mph80%29.95 "Hg10 mi
3:53 am52 °FOvercast.14 mph80%29.99 "Hg10 mi
2:53 am52 °FPassing clouds.14 mph75%30.03 "Hg10 mi
1:53 am52 °FPassing clouds.13 mph72%30.03 "Hg10 mi
1:33 am52 °FPassing clouds.8 mph72%30.02 "Hg10 mi
12:53 am51 °FClear.16 mph74%30.01 "Hg10 mi
11:53 pm
Mon, Oct 21
51 °FClear.9 mph74%30.05 "Hg10 mi
Weather by CustomWeather, © 2019

See weather overview